Location: Sternwarte_Laufen
(47.9344°N, 12.9346°E)
Time: 07:04:56
(UTC+01:00)

BlueWalker 3 - Pass Details

Date: 10 February 2023
Orbit: 497 x 515 km, 53.2° (Epoch: 23 March)

Event Time Altitude Azimuth Distance (km) Brightness Sun altitude
Rises 18:57:44 0° 296° (WNW) 2,605 6.7 -16.4°
Maximum altitude 19:03:44 55° 215° (SW) 616 2.5 -17.4°
Enters shadow 19:05:53 24° 146° (SE) 1,091 3.3 -17.8°
